FW0153 Weather Reports


Display with metric or nautical units.
time (UTC)temp
F
wind
direction
speed
MPH
gust
MPH
rain 1hr
in
rain 24hr
in
rain mn
in
humidity
%
barometer
mb
20260903100505 79 150 0.0 0.0 0.00 0.00 0.00 83 1010.6
20260903100005 79 159 9.0 0.0 0.00 0.00 0.00 83 1010.6
20260903095505 79 166 9.0 0.0 0.00 0.00 0.00 83 1010.6
20260903095213 79 180 9.0 0.0 0.00 0.00 0.00 83 1011.0
20260903094712 79 62 4.0 0.0 0.00 0.00 0.00 82 1010.6
20260903094005 80 156 13.0 0.0 0.00 0.00 0.00 82 1010.6
20260903093504 80 158 23.0 0.0 0.00 0.00 0.00 82 1010.6
20260903093005 80 186 23.0 0.0 0.00 0.00 0.00 82 1010.6
20260903092505 80 162 9.0 0.0 0.00 0.00 0.00 82 1011.0
20260903092005 80 141 4.0 0.0 0.00 0.00 0.00 82 1010.6
20260903091505 80 160 9.0 0.0 0.00 0.00 0.00 82 1010.6
20260903091213 80 159 23.0 0.0 0.00 0.00 0.00 82 1011.0
20260903090505 80 26 4.0 0.0 0.00 0.00 0.00 82 1011.0
20260903090005 80 160 18.0 0.0 0.00 0.00 0.00 81 1011.0
20260903085505 80 70 13.0 0.0 0.00 0.00 0.00 81 1011.0
20260903085005 80 127 18.0 0.0 0.00 0.00 0.00 81 1011.0
20260903084712 80 207 18.0 0.0 0.00 0.00 0.00 81 1011.0
20260903084005 80 62 13.0 0.0 0.00 0.00 0.00 81 1011.0
20260903083505 80 152 18.0 0.0 0.00 0.00 0.00 81 1011.0
20260903083005 80 163 18.0 0.0 0.00 0.00 0.00 81 1011.0
20260903082504 80 148 13.0 0.0 0.00 0.00 0.00 80 1011.3
20260903082213 80 153 9.0 0.0 0.00 0.00 0.00 80 1011.0
20260903081505 80 170 55.0 0.0 0.00 0.00 0.00 80 1011.0
20260903081004 80 152 18.0 0.0 0.00 0.00 0.00 80 1011.3
20260903080505 80 59 9.0 0.0 0.00 0.00 0.00 80 1011.3
20260903080005 80 150 9.0 0.0 0.00 0.00 0.00 80 1011.3
20260903075505 80 139 13.0 0.0 0.00 0.00 0.00 80 1011.3
20260903075005 80 147 13.0 0.0 0.00 0.00 0.00 79 1011.3
20260903074505 80 179 9.0 0.0 0.00 0.00 0.00 79 1011.3
20260903074005 80 167 4.0 0.0 0.00 0.00 0.00 79 1011.3
20260903073505 80 141 4.0 0.0 0.00 0.00 0.00 79 1011.3
20260903073005 80 52 4.0 0.0 0.00 0.00 0.00 79 1011.3
20260903072711 80 164 18.0 0.0 0.00 0.00 0.00 79 1011.6
20260903072005 80 119 9.0 0.0 0.00 0.00 0.00 79 1011.3
20260903071505 80 150 13.0 0.0 0.00 0.00 0.00 79 1011.3
20260903071005 80 9 9.0 0.0 0.00 0.00 0.00 79 1011.0
20260903070505 80 62 4.0 0.0 0.00 0.00 0.00 80 1011.0
20260903070005 80 100 4.0 0.0 0.00 0.00 0.00 80 1011.3
20260903065505 80 123 4.0 0.0 0.00 0.00 0.00 80 1011.6
20260903065004 80 77 9.0 0.0 0.00 0.00 0.00 79 1011.3
20260903064505 80 82 13.0 0.0 0.00 0.00 0.00 79 1011.6
20260903064005 80 100 9.0 0.0 0.00 0.00 0.00 79 1011.3
20260903063505 80 160 13.0 0.0 0.00 0.00 0.00 79 1011.6
20260903063005 80 29 13.0 0.0 0.00 0.00 0.00 79 1011.3
20260903062713 80 61 4.0 0.0 0.00 0.00 0.00 78 1011.3
20260903062005 80 106 18.0 0.0 0.00 0.00 0.00 78 1011.3
20260903061713 80 149 9.0 0.0 0.00 0.00 0.00 78 1011.3
20260903061005 80 187 9.0 0.0 0.00 0.00 0.00 78 1011.3
20260903060505 80 143 13.0 0.0 0.00 0.00 0.00 77 1011.3
20260903060005 80 182 9.0 0.0 0.00 0.00 0.00 77 1011.6
20260903055505 80 23 13.0 0.0 0.00 0.00 0.00 77 1011.3
20260903055004 80 61 9.0 0.0 0.00 0.00 0.00 77 1011.6
20260903054505 80 139 9.0 0.0 0.00 0.00 0.00 77 1011.6
20260903054212 80 133 18.0 0.0 0.00 0.00 0.00 77 1011.6
20260903053505 80 274 13.0 0.0 0.00 0.00 0.00 77 1011.6
20260903053005 80 89 9.0 0.0 0.00 0.00 0.00 77 1011.6
20260903052505 80 80 18.0 0.0 0.00 0.00 0.00 77 1011.6
20260903052005 80 83 9.0 0.0 0.00 0.00 0.00 77 1011.6
20260903051505 80 141 4.0 0.0 0.00 0.00 0.00 77 1012.0
20260903051005 81 44 4.0 0.0 0.00 0.00 0.00 77 1011.6
20260903050505 81 156 13.0 0.0 0.00 0.00 0.00 77 1011.6
20260903045526 81 39 9.0 0.0 0.00 0.00 0.00 77 1011.6
20260903045236 81 106 13.0 0.0 0.00 0.00 0.00 77 1011.6
20260903044739 81 103 13.0 0.0 0.00 0.00 0.00 77 1011.6
20260903044008 81 165 4.0 0.0 0.00 0.00 0.00 77 1011.6
20260903043507 81 320 13.0 0.0 0.00 0.00 0.00 77 1011.6
20260903043014 81 79 9.0 0.0 0.00 0.00 0.00 77 1012.0
20260903042517 81 70 9.0 0.0 0.00 0.00 0.00 77 1012.0
20260903042228 81 40 4.0 0.0 0.00 0.00 0.00 77 1011.6
20260903041731 81 7 4.0 0.0 0.00 0.00 0.00 78 1012.0
20260903041234 81 123 4.0 0.0 0.00 0.00 0.00 78 1012.0
20260903040527 81 74 9.0 0.0 0.00 0.00 0.00 78 1012.0
20260903040032 81 102 9.0 0.0 0.00 0.00 0.00 78 1012.0
20260903035714 81 143 4.0 0.0 0.00 0.00 0.00 78 1012.0
20260903035010 81 48 13.0 0.0 0.00 0.00 0.00 78 1012.0
20260903034720 81 127 9.0 0.0 0.00 0.00 0.00 77 1011.6
20260903034017 81 49 18.0 0.0 0.00 0.00 0.00 77 1011.6
20260903033519 81 91 13.0 0.0 0.00 0.00 0.00 76 1011.6
20260903033023 81 71 4.0 0.0 0.00 0.00 0.00 76 1011.6
20260903032526 81 66 9.0 0.0 0.00 0.00 0.00 76 1011.6
20260903032029 81 104 4.0 0.0 0.00 0.00 0.00 75 1011.6
20260903031532 81 115 9.0 0.0 0.00 0.00 0.00 75 1011.6
20260903031007 82 111 13.0 0.0 0.00 0.00 0.00 75 1011.6
20260903030718 82 72 4.0 0.0 0.00 0.00 0.00 75 1011.3
20260903030013 82 201 9.0 0.0 0.00 0.00 0.00 74 1011.3
20260903025724 82 31 4.0 0.0 0.00 0.00 0.00 74 1011.3
20260903025019 82 180 13.0 0.0 0.00 0.00 0.00 73 1011.0
20260903024522 82 80 18.0 0.0 0.00 0.00 0.00 73 1011.3
20260903024233 82 113 18.0 0.0 0.00 0.00 0.00 72 1010.6
20260903023528 82 129 13.0 0.0 0.00 0.00 0.00 72 1011.0
20260903023031 82 88 18.0 0.0 0.00 0.00 0.00 72 1010.6
20260903022507 83 347 13.0 0.0 0.00 0.00 0.00 72 1010.6
20260903022010 83 76 18.0 0.0 0.00 0.00 0.00 72 1010.6
20260903021513 83 86 9.0 0.0 0.00 0.00 0.00 71 1010.6
20260903021016 83 347 9.0 0.0 0.00 0.00 0.00 70 1010.3
20260903020520 83 13 13.0 0.0 0.00 0.00 0.00 70 1009.9
20260903020022 83 112 13.0 0.0 0.00 0.00 0.00 69 1009.9
20260903015525 83 75 13.0 0.0 0.00 0.00 0.00 68 1010.3
20260903015029 83 94 9.0 0.0 0.00 0.00 0.00 67 1009.9
20260903014531 83 86 18.0 0.0 0.00 0.00 0.00 66 1009.6
20260903014007 84 76 4.0 0.0 0.00 0.00 0.00 65 1009.6
20260903013510 84 80 23.0 0.0 0.00 0.00 0.00 64 1009.6
20260903013013 85 70 13.0 0.0 0.00 0.00 0.00 62 1009.6
20260903012516 85 64 4.0 0.0 0.00 0.00 0.00 61 1009.3
20260903012019 85 47 13.0 0.0 0.00 0.00 0.00 61 1009.6
20260903011523 85 145 13.0 0.0 0.00 0.00 0.00 60 1009.3
20260903011025 85 126 9.0 0.0 0.00 0.00 0.00 59 1009.6
20260903010528 86 49 13.0 0.0 0.00 0.00 0.00 58 1008.9
20260903010032 86 122 13.0 0.0 0.00 0.00 0.00 57 1008.9
20260903005507 86 235 13.0 0.0 0.00 0.00 0.00 56 1009.3
20260903005011 86 358 13.0 0.0 0.00 0.00 0.00 55 1008.9
20260903004513 86 170 13.0 0.0 0.00 0.00 0.00 53 1008.9
20260903004016 87 98 18.0 0.0 0.00 0.00 0.00 51 1008.6
20260903003519 87 132 23.0 0.0 0.00 0.00 0.00 49 1008.9
20260903003022 87 4 23.0 0.0 0.00 0.00 0.00 49 1008.9
20260903002525 88 85 13.0 0.0 0.00 0.00 0.00 49 1008.9
20260903002028 88 98 23.0 0.0 0.00 0.00 0.00 47 1008.9
20260903001531 88 117 13.0 0.0 0.00 0.00 0.00 45 1008.9
20260903001007 88 118 4.0 0.0 0.00 0.00 0.00 44 1008.6
20260903000510 89 84 4.0 0.0 0.00 0.00 0.00 44 1008.6
20260903000013 89 49 0.0 0.0 0.00 0.00 0.00 45 1008.9
20260902235516 89 108 4.0 0.0 0.00 0.00 0.00 46 1008.6
20260902235019 89 115 27.0 0.0 0.00 0.00 0.00 46 1008.6
20260902234522 89 150 4.0 0.0 0.00 0.00 0.00 46 1008.6
20260902234025 89 135 18.0 0.0 0.00 0.00 0.00 45 1008.6
20260902233528 89 49 18.0 0.0 0.00 0.00 0.00 45 1008.6
20260902233031 89 142 13.0 0.0 0.00 0.00 0.00 45 1008.6
20260902232507 90 102 18.0 0.0 0.00 0.00 0.00 44 1008.6
20260902232010 91 29 9.0 0.0 0.00 0.00 0.00 44 1008.6
20260902231720 91 96 27.0 0.0 0.00 0.00 0.00 43 1008.6
20260902231016 91 62 23.0 0.0 0.00 0.00 0.00 44 1008.6
20260902230519 92 64 9.0 0.0 0.00 0.00 0.00 42 1008.6
20260902230022 91 185 13.0 0.0 0.00 0.00 0.00 42 1008.6
20260902225733 92 86 13.0 0.0 0.00 0.00 0.00 41 1008.6
20260902225236 92 79 23.0 0.0 0.00 0.00 0.00 39 1008.6
20260902224531 92 58 18.0 0.0 0.00 0.00 0.00 36 1008.6
20260902224007 92 84 9.0 0.0 0.00 0.00 0.00 34 1008.6
20260902223510 93 80 13.0 0.0 0.00 0.00 0.00 34 1008.2
20260902223013 93 206 9.0 0.0 0.00 0.00 0.00 33 1008.6
20260902222516 93 73 23.0 0.0 0.00 0.00 0.00 33 1008.6
20260902222019 93 57 9.0 0.0 0.00 0.00 0.00 33 1008.6
20260902221522 94 67 9.0 0.0 0.00 0.00 0.00 33 1008.6
20260902221025 93 108 13.0 0.0 0.00 0.00 0.00 33 1008.6
20260902220528 94 153 13.0 0.0 0.00 0.00 0.00 33 1008.6
20260902220031 93 104 13.0 0.0 0.00 0.00 0.00 34 1008.2
20260902215507 94 78 13.0 0.0 0.00 0.00 0.00 34 1008.6
20260902215010 94 55 9.0 0.0 0.00 0.00 0.00 34 1008.6
20260902214720 94 92 23.0 0.0 0.00 0.00 0.00 33 1008.6
20260902214016 94 167 13.0 0.0 0.00 0.00 0.00 33 1008.2
20260902213726 94 84 13.0 0.0 0.00 0.00 0.00 32 1008.6
20260902213022 94 111 9.0 0.0 0.00 0.00 0.00 32 1008.6
20260902212525 94 18 18.0 0.0 0.00 0.00 0.00 33 1008.6
20260902212028 95 154 9.0 0.0 0.00 0.00 0.00 34 1008.6
20260902211531 95 117 18.0 0.0 0.00 0.00 0.00 34 1008.9
20260902211007 94 55 23.0 0.0 0.00 0.00 0.00 35 1008.9
20260902210510 95 146 9.0 0.0 0.00 0.00 0.00 35 1008.9
20260902210013 95 1 13.0 0.0 0.00 0.00 0.00 35 1008.9
20260902205724 95 191 18.0 0.0 0.00 0.00 0.00 34 1008.9
20260902205019 94 108 4.0 0.0 0.00 0.00 0.00 35 1008.9
20260902204522 95 61 13.0 0.0 0.00 0.00 0.00 35 1009.3
20260902204025 95 90 4.0 0.0 0.00 0.00 0.00 37 1009.3
20260902203510 94 139 9.0 0.0 0.00 0.00 0.00 37 1009.3
20260902203031 95 354 18.0 0.0 0.00 0.00 0.00 35 1009.3
20260902202507 95 323 9.0 0.0 0.00 0.00 0.00 36 1009.3
20260902202218 95 154 13.0 0.0 0.00 0.00 0.00 37 1009.6
20260902201513 95 171 13.0 0.0 0.00 0.00 0.00 36 1009.6
20260902201016 95 142 9.0 0.0 0.00 0.00 0.00 37 1009.6
20260902200727 95 136 4.0 0.0 0.00 0.00 0.00 36 1009.6
20260902200022 95 177 9.0 0.0 0.00 0.00 0.00 37 1009.9
20260902195525 95 230 4.0 0.0 0.00 0.00 0.00 38 1009.9
20260902195236 95 154 13.0 0.0 0.00 0.00 0.00 36 1009.9
20260902194531 94 41 18.0 0.0 0.00 0.00 0.00 36 1009.9
20260902194214 94 23 13.0 0.0 0.00 0.00 0.00 38 1010.3
20260902193510 93 163 18.0 0.0 0.00 0.00 0.00 38 1010.3
20260902193013 94 110 9.0 0.0 0.00 0.00 0.00 37 1010.3
20260902192723 95 137 4.0 0.0 0.00 0.00 0.00 36 1010.3
20260902192019 95 160 9.0 0.0 0.00 0.00 0.00 37 1010.3
20260902191522 94 111 4.0 0.0 0.00 0.00 0.00 37 1010.3
20260902191025 94 53 13.0 0.0 0.00 0.00 0.00 38 1010.6
20260902190735 94 201 4.0 0.0 0.00 0.00 0.00 38 1011.0
20260902190031 93 139 4.0 0.0 0.00 0.00 0.00 40 1011.0
20260902185507 92 92 18.0 0.0 0.00 0.00 0.00 39 1011.0
20260902185010 94 126 4.0 0.0 0.00 0.00 0.00 40 1011.0
20260902184513 92 100 9.0 0.0 0.00 0.00 0.00 42 1011.3
20260902184016 92 68 9.0 0.0 0.00 0.00 0.00 41 1011.3
20260902183519 93 146 23.0 0.0 0.00 0.00 0.00 41 1011.3
20260902183022 92 150 9.0 0.0 0.00 0.00 0.00 43 1011.3
20260902182733 92 88 13.0 0.0 0.00 0.00 0.00 40 1011.3
20260902182028 92 20 9.0 0.0 0.00 0.00 0.00 42 1011.3
20260902181531 92 37 9.0 0.0 0.00 0.00 0.00 43 1011.6
20260902181215 92 158 4.0 0.0 0.00 0.00 0.00 42 1011.6
20260902180507 92 131 18.0 0.0 0.00 0.00 0.00 41 1011.6
20260902180013 92 150 4.0 0.0 0.00 0.00 0.00 44 1012.0
20260902175505 91 156 13.0 0.0 0.00 0.00 0.00 42 1012.0
20260902175005 92 33 13.0 0.0 0.00 0.00 0.00 43 1012.0
20260902174505 92 99 13.0 0.0 0.00 0.00 0.00 44 1012.3
20260902174005 91 154 23.0 0.0 0.00 0.00 0.00 45 1012.3
20260902173712 91 53 9.0 0.0 0.00 0.00 0.00 44 1012.3
20260902173005 90 79 13.0 0.0 0.00 0.00 0.00 45 1012.3
20260902172505 91 164 27.0 0.0 0.00 0.00 0.00 45 1012.3
20260902172005 90 163 4.0 0.0 0.00 0.00 0.00 47 1012.3
20260902171505 90 94 18.0 0.0 0.00 0.00 0.00 47 1012.3
20260902171005 90 238 4.0 0.0 0.00 0.00 0.00 48 1012.3
20260902170712 89 105 23.0 0.0 0.00 0.00 0.00 49 1012.7
20260902170005 89 157 23.0 0.0 0.00 0.00 0.00 49 1012.7
20260902165712 89 154 9.0 0.0 0.00 0.00 0.00 51 1012.7
20260902165005 90 172 4.0 0.0 0.00 0.00 0.00 49 1012.7
20260902164505 89 105 13.0 0.0 0.00 0.00 0.00 52 1013.0
20260902164005 89 159 18.0 0.0 0.00 0.00 0.00 52 1013.0
20260902163504 89 212 13.0 0.0 0.00 0.00 0.00 52 1013.0
20260902163005 88 139 13.0 0.0 0.00 0.00 0.00 54 1013.0
20260902162712 88 111 9.0 0.0 0.00 0.00 0.00 56 1013.3
20260902162005 88 122 13.0 0.0 0.00 0.00 0.00 55 1013.0
20260902161505 88 154 13.0 0.0 0.00 0.00 0.00 54 1013.0
20260902161005 88 215 13.0 0.0 0.00 0.00 0.00 55 1013.3
20260902160505 86 161 13.0 0.0 0.00 0.00 0.00 58 1013.3
20260902160007 86 171 23.0 0.0 0.00 0.00 0.00 58 1013.0
20260902155505 86 72 32.0 0.0 0.00 0.00 0.00 57 1013.3
20260902155005 87 119 18.0 0.0 0.00 0.00 0.00 58 1013.3
20260902154505 86 139 4.0 0.0 0.00 0.00 0.00 60 1013.0
20260902154004 86 158 13.0 0.0 0.00 0.00 0.00 60 1013.3
20260902153505 86 125 4.0 0.0 0.00 0.00 0.00 62 1013.0
20260902153005 85 148 27.0 0.0 0.00 0.00 0.00 63 1013.3
20260902152505 84 103 13.0 0.0 0.00 0.00 0.00 64 1013.0
20260902152005 84 176 9.0 0.0 0.00 0.00 0.00 65 1013.0
20260902151711 84 92 13.0 0.0 0.00 0.00 0.00 66 1013.3
20260902151005 84 127 4.0 0.0 0.00 0.00 0.00 67 1013.3
20260902150505 83 197 18.0 0.0 0.00 0.00 0.00 67 1013.0
20260902150005 83 42 23.0 0.0 0.00 0.00 0.00 68 1013.0
20260902145505 83 141 18.0 0.0 0.00 0.00 0.00 69 1013.3
20260902145005 83 166 18.0 0.0 0.00 0.00 0.00 69 1013.3
20260902144504 83 156 9.0 0.0 0.00 0.00 0.00 71 1013.0
20260902144005 83 155 32.0 0.0 0.00 0.00 0.00 71 1013.0
20260902143505 82 134 9.0 0.0 0.00 0.00 0.00 74 1013.3
20260902143005 82 57 4.0 0.0 0.00 0.00 0.00 75 1013.0
20260902142713 82 170 13.0 0.0 0.00 0.00 0.00 75 1013.0
20260902142212 82 162 4.0 0.0 0.00 0.00 0.00 76 1013.3
20260902141505 81 165 9.0 0.0 0.00 0.00 0.00 76 1013.3
20260902141212 82 192 18.0 0.0 0.00 0.00 0.00 76 1013.3
20260902140505 81 164 13.0 0.0 0.00 0.00 0.00 77 1013.0
20260902140212 81 168 13.0 0.0 0.00 0.00 0.00 78 1013.3
20260902135713 80 158 13.0 0.0 0.00 0.00 0.00 80 1013.3
20260902135005 80 194 13.0 0.0 0.00 0.00 0.00 80 1013.0
20260902134505 80 167 13.0 0.0 0.00 0.00 0.00 81 1013.3
20260902134005 80 54 13.0 0.0 0.00 0.00 0.00 81 1013.0
20260902133505 80 114 4.0 0.0 0.00 0.00 0.00 82 1013.0
20260902133005 80 139 13.0 0.0 0.00 0.00 0.00 82 1012.7
20260902132504 80 106 9.0 0.0 0.00 0.00 0.00 82 1013.0
20260902132214 79 165 9.0 0.0 0.00 0.00 0.00 83 1013.0
20260902131504 79 131 0.0 0.0 0.00 0.00 0.00 83 1013.0
20260902131005 79 143 4.0 0.0 0.00 0.00 0.00 84 1012.7
20260902130505 79 47 9.0 0.0 0.00 0.00 0.00 84 1013.0
20260902130005 78 52 4.0 0.0 0.00 0.00 0.00 84 1013.0
20260902125505 78 5 0.0 0.0 0.00 0.00 0.00 85 1012.7
20260902125005 78 104 0.0 0.0 0.00 0.00 0.00 85 1012.7
20260902124505 78 113 0.0 0.0 0.00 0.00 0.00 85 1012.3
20260902124005 78 32 0.0 0.0 0.00 0.00 0.00 85 1012.3
20260902123505 78 166 9.0 0.0 0.00 0.00 0.00 85 1012.3
20260902123213 78 89 4.0 0.0 0.00 0.00 0.00 85 1012.3
20260902122712 78 153 4.0 0.0 0.00 0.00 0.00 85 1012.3
20260902122005 78 174 18.0 0.0 0.00 0.00 0.00 85 1012.3
20260902121505 78 109 0.0 0.0 0.00 0.00 0.00 85 1012.3
20260902121005 78 131 4.0 0.0 0.00 0.00 0.00 85 1012.3
20260902120712 78 58 0.0 0.0 0.00 0.00 0.00 85 1012.3
20260902120005 78 93 0.0 0.0 0.00 0.00 0.00 84 1012.3
20260902115505 78 158 13.0 0.0 0.00 0.00 0.00 85 1012.3
20260902115005 78 124 4.0 0.0 0.00 0.00 0.00 84 1012.3
20260902114505 78 49 0.0 0.0 0.00 0.00 0.00 84 1012.3
20260902114213 78 137 0.0 0.0 0.00 0.00 0.00 84 1012.3
20260902113505 78 79 0.0 0.0 0.00 0.00 0.00 85 1012.3
20260902113005 78 151 4.0 0.0 0.00 0.00 0.00 84 1012.3
20260902112505 78 144 13.0 0.0 0.00 0.00 0.00 84 1012.3
20260902112005 78 179 4.0 0.0 0.00 0.00 0.00 84 1012.3
20260902111504 78 145 0.0 0.0 0.00 0.00 0.00 84 1012.3
20260902111213 78 106 0.0 0.0 0.00 0.00 0.00 84 1012.0
20260902110505 78 138 0.0 0.0 0.00 0.00 0.00 84 1012.3
20260902110007 78 108 0.0 0.0 0.00 0.00 0.00 84 1012.0
20260902105505 78 48 9.0 0.0 0.00 0.00 0.00 84 1012.3
20260902105005 78 114 4.0 0.0 0.00 0.00 0.00 83 1012.3
20260902104505 79 107 0.0 0.0 0.00 0.00 0.00 83 1012.3
20260902104005 78 66 4.0 0.0 0.00 0.00 0.00 83 1012.0
20260902103505 78 181 13.0 0.0 0.00 0.00 0.00 83 1012.3
20260902103004 78 152 4.0 0.0 0.00 0.00 0.00 83 1012.0
20260902102505 78 66 0.0 0.0 0.00 0.00 0.00 83 1012.3
20260902102005 79 66 4.0 0.0 0.00 0.00 0.00 83 1012.0
20260902101505 79 74 4.0 0.0 0.00 0.00 0.00 82 1012.0
20260902101005 79 139 4.0 0.0 0.00 0.00 0.00 82 1012.3